TimePST,TemperatureF,Dew PointF,Humidity,Sea Level PressureIn,VisibilityMPH,Wind Direction,Wind SpeedMPH,Gust SpeedMPH,PrecipitationIn,Events,Conditions,WindDirDegrees,DateUTC
12:54 AM,48.0,43.0,83,29.98,10.0,SE,8.1,-,N/A,,Mostly Cloudy,140,2012-11-09 08:54:00
1:54 AM,48.9,43.0,80,29.96,10.0,SE,8.1,-,N/A,,Mostly Cloudy,140,2012-11-09 09:54:00
2:54 AM,46.9,43.0,86,29.97,5.0,NNE,5.8,-,0.04,,Overcast,30,2012-11-09 10:54:00
3:54 AM,48.0,44.1,86,29.95,10.0,Variable,3.5,-,0.01,,Mostly Cloudy,0,2012-11-09 11:54:00
4:54 AM,48.9,44.1,83,29.96,10.0,SSW,5.8,-,N/A,,Scattered Clouds,200,2012-11-09 12:54:00
5:26 AM,46.4,39.2,76,29.94,2.5,West,18.4,33.4,0.06,,Haze,260,2012-11-09 13:26:00
5:32 AM,46.4,41.0,81,29.93,2.5,West,13.8,29.9,0.07,,Haze,280,2012-11-09 13:32:00
5:37 AM,46.4,42.8,87,29.93,5.0,West,4.6,20.7,0.08,,Overcast,260,2012-11-09 13:37:00
5:54 AM,45.0,42.1,90,29.96,10.0,SSE,5.8,-,0.08,,Mostly Cloudy,160,2012-11-09 13:54:00
6:54 AM,44.1,42.1,93,29.98,10.0,SSE,4.6,-,N/A,,Clear,150,2012-11-09 14:54:00
7:54 AM,48.0,43.0,83,29.99,10.0,South,3.5,-,0.01,Rain,Light Rain,190,2012-11-09 15:54:00
8:54 AM,50.0,44.1,80,30.01,10.0,WNW,4.6,-,0.00,Rain,Light Rain,290,2012-11-09 16:54:00
9:54 AM,52.0,44.1,74,30.01,10.0,WNW,6.9,-,N/A,,Partly Cloudy,300,2012-11-09 17:54:00
10:54 AM,53.1,41.0,64,30.02,10.0,NW,5.8,-,N/A,,Clear,320,2012-11-09 18:54:00
11:54 AM,53.1,39.9,61,30.01,10.0,WNW,8.1,-,N/A,,Clear,300,2012-11-09 19:54:00
12:54 PM,53.1,41.0,64,30.00,10.0,NW,5.8,-,N/A,,Partly Cloudy,310,2012-11-09 20:54:00
1:54 PM,55.0,39.0,55,29.99,10.0,West,6.9,-,N/A,,Partly Cloudy,280,2012-11-09 21:54:00
2:54 PM,55.0,39.0,55,29.99,10.0,WSW,9.2,-,N/A,,Clear,250,2012-11-09 22:54:00
3:54 PM,54.0,39.0,57,29.99,10.0,West,11.5,16.1,N/A,,Clear,270,2012-11-09 23:54:00
4:54 PM,52.0,39.0,61,30.00,10.0,WSW,5.8,-,N/A,,Clear,240,2012-11-10 00:54:00
5:54 PM,50.0,39.0,66,30.01,10.0,SSW,5.8,-,N/A,,Clear,210,2012-11-10 01:54:00
6:54 PM,50.0,39.0,66,30.03,10.0,SSW,4.6,-,N/A,,Clear,200,2012-11-10 02:54:00
7:54 PM,46.9,39.9,77,30.04,10.0,Calm,Calm,-,N/A,,Overcast,0,2012-11-10 03:54:00
8:22 PM,48.2,42.8,82,30.01,6.0,SSW,8.1,-,0.01,,Haze,210,2012-11-10 04:22:00
8:43 PM,48.2,42.8,82,30.02,2.0,SSW,5.8,-,0.09,,Haze,210,2012-11-10 04:43:00
8:54 PM,46.9,44.1,90,30.05,6.0,SSE,5.8,-,0.11,,Overcast,160,2012-11-10 04:54:00
9:54 PM,46.9,43.0,86,30.06,10.0,SSE,6.9,-,N/A,,Mostly Cloudy,150,2012-11-10 05:54:00
10:54 PM,46.9,43.0,86,30.06,10.0,South,6.9,-,0.01,,Mostly Cloudy,170,2012-11-10 06:54:00
11:54 PM,46.0,42.1,86,30.06,10.0,SE,8.1,-,N/A,,Partly Cloudy,140,2012-11-10 07:54:00